Location: Ash Swamp
(41.5170°N, 74.6157°W)
Time: 02:30:15
(UTC+00:00)

Cosmos 2369 - Pass Details

Date: 14 July 2020
Orbit: 838 x 857 km, 71.0° (Epoch: 14 August)

Event Time Altitude Azimuth Distance (km) Brightness Sun altitude
Rises 06:45:58 0° 339° (NNW) 3,433 7.5 -22.6°
Reaches altitude 10° 06:48:29 10° 344° (NNW) 2,495 6.8 -22.4°
Maximum altitude 06:54:07 55° 62° (ENE) 1,025 4.4 -22.0°
Drops below altitude 10° 06:59:42 10° 140° (SE) 2,483 5.9 -21.5°
Enters shadow 07:00:16 - 141° (SE) 2,688 6.1 -21.4°
